Home > Time Zones > World Clock > Weather > Qatar > Doha > Past weeks

Flag for Qatar Weather past 2 weeks in Doha, Qatar

Now
75 °F

Clear.


Feels Like: 78 °F
Forecast: 81 / 105 °F
Wind: 5 mph from Southwest

Location: Doha International Airport

Current Time: Apr 22, 2015 at 4:42:32 AM

Latest Report: Apr 22, 2015 at 4:00 AM


Visibility: 10 mi

Pressure: 29.83 "Hg

Humidity: 50%

Dew point: 55 °F

Location of DohaLocation

Historic Weather in Doha — Graph

°F

Doha temperature yesterday

Maximum temperature yesterday: 97 °F (at 1:00 PM)
Minimum temperature yesterday: 73 °F (at 4:00 AM)
Average temperature yesterday: 84 °F

Past Weeks' High & Low Weather Summary

 TemperatureHumidityPressure
High106 °F (Apr 12, 12:30 PM)83% (Apr 15, 11:30 PM)30.04 "Hg (Apr 15, 11:30 PM)
Low72 °F (Apr 15, 1:00 AM)10% (Apr 21, 2:30 PM)27.13 "Hg (Apr 17, 4:30 AM)
Average83 °F37%29.88 "Hg
* Reported Apr 7 6:30 AM — Apr 22 3:00 AM, Doha, Weather by CustomWeather, © 2015

Note: Actual official high and low records may vary slightly from our data, if they occured in-between our weather recording intervals... More about our weather records

Advertising

Doha weather history for previous 24 hours

 ConditionsComfort  
Time TempWeatherWind HumidityBarometerVisibility
3:00 AM
Wed, Apr 22
75 °FClear.6 mph54%29.83 "Hg10 mi
2:00 AM75 °FClear.3 mph65%29.83 "Hg10 mi
1:30 AM75 °FClear.5 mph65%29.83 "Hg10 mi
12:00 AM79 °FClear.3 mph48%29.86 "Hg10 mi
11:30 PM
Tue, Apr 21
79 °FClear.3 mph48%29.86 "Hg10 mi
11:00 PM79 °FClear.5 mph42%29.89 "Hg10 mi
10:00 PM79 °FClear.2 mph58%29.89 "Hg10 mi
9:00 PM79 °FClear.2 mph51%29.89 "Hg10 mi
8:30 PM79 °FClear.1 mph51%29.89 "Hg10 mi
8:00 PM81 °FClear.1 mph48%29.89 "Hg10 mi
7:30 PM81 °FClear.2 mph45%29.89 "Hg10 mi
7:00 PM82 °FPassing clouds.3 mph42%29.86 "HgN/A
6:30 PM82 °FClear.5 mph42%29.86 "Hg10 mi
6:00 PM84 °FPassing clouds.3 mph37%29.86 "HgN/A
5:00 PM88 °FSunny.9 mph27%29.86 "Hg10 mi
4:30 PM90 °FSunny.12 mph26%29.86 "Hg10 mi
4:00 PM91 °FSunny.14 mph23%29.86 "Hg10 mi
3:00 PM93 °FSunny.15 mph19%29.86 "Hg10 mi
2:30 PM95 °FSunny.18 mph10%29.86 "Hg10 mi
2:00 PM95 °FSunny.18 mph12%29.89 "Hg10 mi
1:00 PM97 °FSunny.17 mph11%29.92 "Hg10 mi
12:00 PM95 °FPassing clouds.13 mph11%29.92 "HgN/A
11:00 AM93 °FPassing clouds.12 mph13%29.95 "HgN/A
10:00 AM91 °FPassing clouds.7 mph17%29.95 "HgN/A
9:30 AM90 °FPassing clouds.9 mph16%29.98 "HgN/A
9:00 AM88 °FPassing clouds.10 mph17%29.98 "HgN/A
8:00 AM84 °FPassing clouds.6 mph22%29.95 "HgN/A
7:00 AM79 °FPassing clouds.6 mph32%29.95 "HgN/A
6:00 AM75 °FSunny.1 mph39%29.89 "Hg10 mi
5:30 AM73 °FPassing clouds.3 mph41%29.89 "HgN/A
5:00 AM73 °FPassing clouds.5 mph38%29.89 "HgN/A
4:00 AM73 °FClear.5 mph36%29.89 "Hg10 mi
Weather by CustomWeather, © 2015

See weather overviewHow to use our weather pages